Dewpoint
54 53 54 54 54 54 54 54 54 55 55 55 55 56 56 56 56 57 57 58 58 59 59 59 60 60 60 61 61 61 59 57 42 40 35 50 60 62 63 65 65 65 64 48 29 25 19 17 19 19 22 25 34 31 33 34 32 37 22 17 17 14 16 21 11 13 21 11 19 16 16 13 13 19 19 21 20 17 23 21 23 28 28 30 35 36 54 57
53 53 54 53 53 54 54 54 54 53 54 54 55 55 55 56 56 56 57 57 58 58 59 59 60 60 61 60 61 60 57 52 37 32 45 58 61 63 64 64 65 65 60 44 25 19 15 13 15 19 16 17 34 29 33 31 33 26 18 18 17 16 23 16 12 14 12 17 16 15 15 13 12 16 21 17 15 17 16 18 21 23 25 32 35 37 52 57
53 53 53 53 53 53 53 53 53 53 53 54 54 54 55 55 56 56 57 57 58 58 59 59 60 60 61 60 60 59 57 48 29 25 43 61 62 63 64 64 64 65 50 35 26 21 13 12 14 16 15 13 20 18 28 26 28 24 28 17 11 25 20 21 17 18 19 18 16 17 16 17 17 15 23 15 12 16 15 13 17 19 21 28 33 35 51 55
53 53 53 53 53 52 52 53 53 52 53 54 53 54 54 55 55 56 56 57 57 58 59 59 60 60 60 60 60 60 54 36 21 29 46 62 61 63 63 63 62 61 52 36 27 25 20 16 15 15 14 11 15 23 17 25 25 24 15 12 20 17 14 19 20 19 19 19 18 16 19 15 19 17 20 16 13 14 16 14 14 17 16 26 32 34 48 53
53 53 53 53 52 52 52 52 53 52 52 53 53 53 54 54 55 55 56 56 57 58 59 59 60 60 60 60 58 58 52 18 21 38 53 61 61 63 61 60 59 45 40 29 24 21 18 15 14 17 12 12 15 12 15 18 24 22 10 19 20 17 11 21 22 22 21 20 19 19 17 16 20 21 20 17 14 11 10 11 13 14 22 27 33 35 44 49
52 53 52 52 51 52 52 52 52 53 53 53 53 53 54 54 55 55 56 56 57 57 58 59 59 60 60 59 59 54 37 1 36 46 58 59 61 60 59 59 59 44 28 25 25 22 19 16 15 14 12 10 12 5 16 18 23 9 17 19 20 22 21 23 22 24 23 20 18 18 18 20 19 17 18 17 16 13 20 24 25 24 25 30 33 38 42 47
53 52 52 52 51 52 52 52 52 53 53 53 53 54 54 54 55 55 55 56 57 57 58 59 59 59 59 58 56 47 27 24 35 54 59 59 59 57 60 56 56 36 31 27 22 21 19 14 15 11 11 13 11 16 17 14 22 18 16 19 21 22 22 23 23 23 22 21 19 21 21 18 18 16 20 21 19 18 24 27 28 28 25 28 33 38 41 45
52 52 52 52 52 52 52 52 52 52 53 53 53 53 54 54 55 55 55 56 56 57 58 59 59 59 58 58 45 29 24 28 45 51 57 59 51 45 54 45 38 42 30 27 22 18 17 14 11 15 9 4 9 13 19 16 16 11 16 20 22 23 24 23 22 22 22 22 21 21 19 18 19 19 22 20 20 19 21 25 26 28 27 25 30 36 38 42
53 53 53 52 51 52 52 52 52 53 53 53 53 54 55 55 55 55 56 56 56 57 58 58 59 59 56 48 33 18 15 44 50 48 48 46 43 40 53 39 36 33 28 29 25 26 21 15 17 12 9 16 18 18 19 15 9 21 19 21 22 23 22 22 22 22 22 21 21 20 19 20 21 22 20 19 19 20 22 25 26 29 27 26 26 31 33 38
53 52 52 52 51 51 51 51 52 53 53 54 54 54 54 55 55 55 56 56 57 57 57 58 58 57 52 46 24 9 43 49 48 45 45 44 40 38 40 42 36 30 29 27 26 24 22 17 20 19 19 18 19 20 23 20 20 23 21 21 22 23 23 24 22 22 23 24 21 20 18 19 22 20 14 19 24 26 24 23 23 27 26 25 26 27 30 32
52 52 52 51 51 51 51 52 52 52 53 53 54 54 54 55 55 55 56 56 57 57 57 58 58 57 50 33 12 7 46 50 46 42 43 42 41 39 44 43 36 34 27 30 31 31 29 24 28 24 30 14 20 21 22 23 24 22 22 22 22 23 24 23 23 23 23 22 22 22 20 21 22 23 18 23 28 28 23 23 23 27 26 24 25 27 30 30
53 53 52 52 52 52 52 52 52 53 53 53 54 54 54 55 55 55 56 57 57 57 57 58 57 53 35 20 9 35 44 46 43 42 43 46 40 43 45 41 40 45 34 26 35 39 39 28 30 20 16 21 16 20 22 25 24 23 22 17 21 21 21 22 22 24 25 22 23 23 21 19 21 20 21 23 27 27 25 23 23 24 25 27 27 28 31 33
54 53 53 53 52 52 52 52 53 53 53 53 54 54 54 55 55 56 56 57 57 57 58 58 58 55 42 11 38 47 45 44 43 42 39 43 43 40 43 45 43 38 40 28 33 40 38 37 32 21 26 23 21 19 24 26 24 23 21 21 18 17 17 23 24 24 24 24 24 23 13 10 13 20 18 27 25 25 24 23 22 23 24 25 28 31 32 33
55 54 53 53 52 52 53 52 53 53 53 54 54 54 55 55 56 56 57 57 58 58 58 57 56 46 30 25 42 45 47 47 45 41 41 42 38 43 40 41 39 37 41 35 40 39 43 33 32 26 28 23 20 28 24 23 23 20 20 19 18 18 15 24 23 24 21 24 24 23 18 10 13 19 25 28 25 24 22 21 21 22 23 25 29 30 31 32
55 55 55 54 53 54 53 54 54 54 54 54 54 54 55 55 56 56 57 57 58 58 57 56 56 42 14 27 37 48 58 48 41 43 45 42 36 37 34 34 36 34 34 35 34 37 32 36 30 21 23 27 27 26 19 19 19 21 14 15 20 18 23 22 24 23 18 23 24 22 21 16 14 21 25 26 25 25 23 22 22 23 23 24 26 27 29 29
56 56 56 55 55 54 55 55 55 55 54 54 54 55 55 56 56 57 57 57 58 57 57 59 46 36 15 11 44 55 46 38 38 46 47 42 45 38 39 36 37 36 33 32 36 35 32 30 27 27 24 25 23 19 18 21 20 19 17 23 23 18 18 21 23 25 24 23 24 21 15 14 15 22 25 26 26 25 23 22 24 24 24 25 25 26 26 28
56 56 56 56 55 55 55 55 56 56 55 55 55 55 56 56 57 57 57 57 57 55 56 32 22 21 10 32 35 37 34 46 44 47 44 40 42 36 37 37 32 32 34 34 36 37 31 26 29 34 28 18 17 20 20 20 19 19 19 16 25 17 10 8 23 25 29 23 21 23 20 18 17 17 24 25 26 25 23 22 22 22 23 25 28 27 26 27
56 56 56 56 56 56 56 56 56 56 55 55 55 56 56 57 57 55 57 57 56 49 39 36 38 26 11 28 25 26 45 40 47 42 43 37 42 36 37 31 34 32 32 29 32 29 30 26 28 21 21 21 20 20 22 14 18 16 22 17 16 16 15 11 15 23 23 23 21 20 22 21 20 20 20 20 25 24 23 23 22 21 22 24 24 27 28 29
57 56 56 56 56 56 56 56 56 55 55 56 56 55 56 57 58 54 39 35 28 21 16 21 16 10 8 17 38 41 46 44 46 46 36 37 39 38 36 34 36 27 29 22 27 27 28 31 31 27 20 19 15 13 15 15 10 12 18 15 11 16 14 8 9 24 23 18 19 18 16 14 17 19 19 19 20 21 23 23 23 23 23 23 24 26 27 31
57 57 57 57 56 56 56 57 56 55 55 55 53 51 51 39 36 27 34 33 26 21 29 23 14 21 28 33 40 44 47 47 37 40 42 40 39 36 32 31 37 32 25 21 30 29 34 27 21 22 18 18 16 14 16 15 12 10 17 18 10 14 12 19 21 26 25 22 18 17 16 15 16 16 17 18 18 18 18 23 25 25 26 26 27 26 28 29
57 57 57 57 56 56 57 57 56 55 55 55 53 46 17 20 19 16 23 22 35 30 33 30 33 30 32 42 44 40 34 35 39 38 42 45 40 32 29 30 28 24 24 31 30 29 27 23 22 19 19 19 19 22 20 18 15 14 17 21 13 24 9 19 23 26 25 21 14 16 19 20 19 18 17 17 17 17 19 20 23 24 23 25 28 29 31 30
57 57 57 57 56 56 57 57 55 55 53 54 51 36 25 34 47 49 35 12 26 40 36 36 36 32 36 40 43 45 41 31 36 40 45 43 34 30 29 26 24 18 31 30 25 24 24 19 17 20 23 21 22 21 20 16 18 20 17 20 23 15 21 24 24 25 24 23 17 16 19 20 19 17 17 16 17 18 18 20 21 22 24 24 25 27 28 31
57 57 57 57 57 57 56 56 55 55 53 49 44 39 38 51 51 51 44 26 21 38 33 32 24 29 34 39 40 42 31 25 28 39 38 42 34 31 28 22 22 21 26 21 19 22 21 21 18 24 22 20 22 21 20 21 23 22 21 20 16 29 17 12 23 25 25 20 16 20 21 20 19 18 18 19 17 17 20 20 23 25 26 26 24 26 29 31
58 58 57 57 57 57 57 56 55 54 53 51 49 43 53 53 52 48 47 16 18 24 27 31 31 25 30 26 39 35 24 25 28 34 42 38 29 36 29 23 19 24 21 20 14 17 14 25 26 23 22 18 19 22 21 20 16 27 27 24 18 22 19 18 17 21 24 23 26 25 25 22 21 18 17 18 21 22 25 27 28 31 35 34 38 38 37 32
58 57 57 57 57 57 56 55 53 52 52 50 47 50 52 55 52 51 40 13 12 25 37 33 40 34 32 40 43 32 28 28 33 38 43 38 31 27 22 28 25 22 16 19 16 17 20 27 28 24 26 20 26 21 25 26 17 20 30 25 19 18 19 25 27 22 17 16 29 31 14 10 12 22 22 17 22 24 23 24 25 28 30 34 34 35 37 41
58 57 57 57 57 57 56 52 53 52 49 46 44 52 51 54 54 47 32 12 13 24 26 19 33 21 37 31 41 38 23 15 37 41 41 43 40 28 27 24 25 17 15 24 17 18 21 28 31 30 30 32 30 23 27 26 17 18 19 32 24 19 28 27 24 27 16 12 30 30 13 11 10 9 9 8 10 11 13 27 25 23 25 27 34 36 35 37
58 57 57 57 57 56 53 51 53 52 48 44 51 52 52 52 53 49 20 17 12 29 16 36 24 27 40 33 32 22 11 17 42 41 39 42 33 37 23 21 23 26 27 24 20 18 28 26 32 33 31 32 29 22 32 26 20 14 35 36 29 29 29 29 28 27 20 29 31 27 24 17 17 15 16 16 13 12 16 17 20 22 24 26 26 29 33 35
57 58 57 57 57 55 54 53 52 49 48 50 52 51 53 53 53 45 17 12 15 32 24 25 29 37 38 35 38 12 26 30 25 34 39 42 41 30 26 21 20 22 26 24 18 35 26 32 32 32 31 28 22 22 34 30 22 29 34 37 33 28 30 32 30 26 28 27 19 28 32 22 21 21 17 17 15 13 15 16 17 19 24 26 30 32 34 35
57 57 57 57 57 56 55 54 52 50 51 52 52 51 53 50 43 25 14 13 31 23 35 23 37 34 35 33 24 26 27 30 29 38 42 37 39 33 21 23 22 19 25 23 13 30 30 36 31 30 29 24 33 30 35 29 22 35 36 34 33 34 34 31 27 29 26 23 20 28 30 19 11 14 16 24 21 16 12 10 10 14 25 31 32 35 35 35
56 57 57 57 57 56 55 54 53 55 53 52 52 52 52 45 30 19 17 15 30 21 28 31 28 27 29 24 22 24 24 28 36 37 36 30 34 35 28 32 26 27 30 26 31 33 31 33 38 34 29 30 31 33 37 36 36 35 36 33 33 32 32 29 29 26 26 18 21 30 27 16 10 16 14 24 23 15 9 4 8 24 31 32 36 39 42 38
55 56 57 56 55 55 55 52 54 55 55 54 53 52 45 38 24 15 18 18 26 34 29 27 28 29 25 20 21 24 27 33 34 33 32 33 31 30 27 25 29 29 30 31 30 35 33 34 32 34 32 32 31 33 36 37 37 39 32 26 27 27 27 26 26 27 17 11 25 26 26 21 9 8 20 15 16 16 15 9 6 16 21 35 37 35 34 36
55 56 57 57 57 57 54 53 56 55 54 53 53 47 37 25 28 24 19 23 21 29 27 26 31 29 24 24 26 23 23 32 33 31 28 29 30 26 25 19 26 23 20 22 21 34 31 32 34 37 35 31 35 29 31 35 36 37 25 23 17 13 18 13 23 21 17 12 24 24 29 25 20 9 14 16 14 14 16 16 14 15 16 20 36 37 39 40
54 56 56 57 55 55 56 55 55 55 52 51 47 49 33 27 22 24 23 25 20 30 26 33 32 28 26 25 27 25 33 24 33 31 32 31 28 30 28 20 26 22 13 22 23 26 25 35 35 36 33 34 33 23 28 25 29 28 23 22 16 8 12 13 15 19 15 26 25 22 29 21 16 15 15 15 15 15 15 22 30 29 27 29 29 39 38 42
54 55 56 56 57 57 57 54 55 54 52 50 45 39 40 29 28 33 27 27 31 32 30 32 30 29 26 25 28 30 24 30 31 30 33 33 30 28 28 26 23 23 29 25 19 23 17 22 29 34 26 34 34 24 27 23 27 26 28 24 19 13 12 14 12 12 16 12 21 25 21 20 18 8 19 20 21 24 23 24 28 31 33 34 35 37 37 39
53 55 55 57 56 56 55 55 54 54 52 48 43 37 29 29 31 32 30 32 32 30 31 33 31 30 28 31 31 27 28 27 33 33 33 30 28 29 27 25 29 30 28 19 25 23 21 16 31 33 34 33 33 35 31 29 30 30 30 30 23 20 12 7 16 17 19 17 22 24 19 19 16 18 22 22 21 21 26 27 30 32 33 35 36 37 37 37
52 54 55 54 55 55 55 55 54 53 50 45 36 31 31 32 32 39 34 32 31 32 30 30 33 28 26 28 32 30 34 35 32 33 31 31 29 27 29 28 27 27 25 19 23 17 23 17 36 36 35 29 30 36 32 30 19 27 30 27 26 28 23 18 23 25 22 16 12 23 21 21 17 11 10 12 12 12 13 14 22 28 32 36 39 41 39 40
47 52 49 51 53 55 54 55 54 52 49 44 35 31 34 39 39 38 41 34 32 31 32 27 29 24 26 24 28 29 30 33 35 31 26 33 30 32 31 29 30 28 25 22 21 25 19 23 31 34 31 34 35 37 36 35 37 32 25 24 33 33 30 22 12 22 17 11 14 17 15 11 11 12 16 12 15 15 17 17 14 19 24 32 40 43 45 42
46 46 47 48 52 55 54 55 53 51 47 41 33 35 38 37 42 41 38 35 34 32 30 28 30 30 27 25 25 27 31 25 30 30 26 29 23 29 31 32 31 28 26 24 18 27 27 17 30 35 36 36 35 33 30 38 36 33 28 36 23 19 18 17 17 15 14 15 15 13 10 14 14 11 10 9 12 13 13 16 16 14 19 25 30 34 43 41
46 43 40 46 54 54 54 55 51 48 43 36 34 34 38 39 44 40 40 38 38 34 31 31 30 31 28 26 26 27 30 24 30 29 25 29 24 28 28 31 32 31 29 24 22 25 28 20 25 30 33 35 33 30 25 27 35 34 35 29 36 26 20 18 18 21 13 12 15 19 16 14 22 15 13 12 10 11 8 9 10 13 16 17 27 37 43 42
41 37 36 47 54 54 55 53 48 46 41 33 34 36 43 38 41 43 45 43 38 35 32 31 32 29 31 32 30 27 31 27 29 29 26 30 26 28 26 30 28 32 28 26 27 28 21 21 15 30 34 32 26 29 25 28 27 26 25 23 30 28 31 25 27 19 16 14 11 10 10 13 16 12 11 11 11 13 10 14 23 25 25 26 32 41 42 40
44 36 34 51 53 54 53 50 43 40 39 39 40 39 41 39 40 41 42 43 45 44 43 40 35 31 32 32 29 31 31 29 29 28 28 27 26 26 30 29 31 32 29 29 29 27 26 20 18 28 28 26 25 31 30 29 28 26 24 23 24 24 24 21 19 27 24 19 16 12 13 17 16 13 12 12 12 14 16 19 21 22 21 31 42 42 40 41
36 29 29 51 52 53 49 41 40 42 41 37 36 38 39 42 40 40 41 43 43 44 43 43 43 40 38 32 33 35 32 30 32 31 31 28 30 26 34 30 29 33 30 28 28 31 25 27 23 24 28 28 28 35 38 35 37 34 25 24 26 25 24 21 16 21 25 22 25 24 19 19 18 17 18 16 15 19 26 30 27 28 29 30 40 41 41 41
38 27 47 52 53 52 46 40 40 40 39 39 40 39 42 40 39 41 39 40 39 41 43 41 38 38 40 39 39 39 37 35 32 31 32 33 31 28 36 30 33 34 32 28 32 33 32 28 23 23 25 34 33 36 37 36 35 33 33 35 31 25 26 22 20 24 23 23 20 19 18 19 22 25 26 28 32 34 32 31 30 31 34 36 37 39 41 42
33 32 39 48 53 50 42 34 35 38 38 40 40 38 41 40 39 39 38 38 37 38 38 38 39 37 37 41 40 36 37 31 37 33 32 34 33 38 33 34 32 32 30 30 28 33 27 26 25 21 21 22 29 32 31 35 34 30 28 31 33 33 32 31 29 27 22 23 24 17 15 18 24 28 33 28 28 26 23 26 32 33 35 38 36 38 40 40
31 35 39 42 48 47 39 35 33 35 36 36 38 37 37 39 40 39 38 38 39 38 38 37 37 37 38 38 38 41 41 35 34 39 36 39 34 38 39 34 31 29 31 42 39 35 31 29 25 21 20 18 20 23 23 28 28 29 30 31 32 32 31 30 26 25 23 25 26 22 18 18 18 23 26 25 27 24 25 29 29 33 33 33 37 40 40 41
30 25 31 37 43 40 42 42 39 34 33 34 34 36 37 36 39 40 38 39 38 39 37 38 38 38 38 38 38 37 37 40 36 36 39 36 37 38 41 39 36 34 35 38 39 35 30 35 30 25 23 22 23 26 34 32 29 28 30 31 31 33 31 31 29 25 23 24 24 24 23 21 20 20 19 21 28 24 22 24 28 31 33 36 37 39 40 40
27 24 27 30 38 39 39 41 40 37 32 32 31 35 33 34 36 39 40 38 39 39 39 38 38 37 37 37 37 37 37 37 39 37 38 37 38 39 40 41 40 39 37 36 38 36 32 29 31 30 28 26 26 27 33 32 31 30 30 32 32 33 33 31 28 25 26 26 22 25 26 27 23 23 22 22 22 21 25 24 23 27 35 38 40 38 35 34
31 28 28 30 32 33 34 35 38 37 36 33 29 32 32 31 32 35 38 38 38 39 38 38 38 37 37 37 37 35 35 36 37 36 37 38 38 39 37 39 37 37 38 38 44 38 32 28 32 32 33 32 32 31 32 32 31 31 30 31 32 33 34 31 31 30 29 25 23 26 27 28 24 23 24 24 24 24 24 22 24 25 28 35 36 36 36 37
32 32 30 33 31 32 35 36 37 37 35 34 30 29 29 29 29 33 36 37 37 38 37 34 35 36 36 35 35 35 34 32 33 36 36 36 37 37 36 37 40 40 40 39 40 40 36 31 35 35 33 34 33 33 33 32 31 31 32 30 30 32 34 33 32 32 31 29 29 28 28 27 26 25 25 25 26 27 25 27 26 28 33 34 34 35 36 35
33 31 32 33 35 32 33 34 36 36 34 34 33 32 30 29 28 29 32 35 35 35 38 35 33 36 36 35 34 32 33 33 34 34 37 38 35 38 36 36 35 36 36 35 38 40 38 32 36 35 33 33 35 36 35 34 34 33 33 33 32 32 33 34 33 33 33 31 31 29 30 28 28 27 28 28 28 29 29 27 27 29 30 31 30 30 32 34
35 33 34 31 28 28 31 32 33 34 33 35 34 33 33 31 30 30 29 34 34 34 35 35 35 34 36 35 35 35 35 34 34 34 35 38 34 38 35 36 36 34 35 34 36 37 38 33 37 34 32 31 35 34 34 35 35 34 34 34 33 32 31 32 33 34 32 31 32 32 30 29 29 30 30 29 29 30 30 29 29 30 30 30 30 30 30 30
38 42 37 33 27 28 29 31 29 32 32 34 34 32 31 31 32 32 29 34 35 34 35 36 36 34 34 34 34 35 37 37 40 40 40 40 40 39 38 39 37 36 34 34 36 35 35 33 32 33 31 30 32 33 33 33 33 32 32 34 35 34 34 33 33 34 33 32 31 29 29 30 30 30 29 30 30 30 30 30 32 32 33 32 31 31 31 31